Location: Chacón
(10.5789°N, 66.9317°W)
Time: 13:14:12
(UTC+00:00)

Cosmos 962 Rocket - Pass Details

Date: 17 October 2025
Orbit: 950 x 998 km, 82.9° (Epoch: 16 November)

Event Time Altitude Azimuth Distance (km) Brightness Sun altitude
Rises 09:20:03 0° 341° (NNW) 3,687 7.3 -14.6°
Reaches altitude 10° 09:22:46 10° 333° (NNW) 2,733 6.5 -14.0°
Maximum altitude 09:28:24 36° 269° (W) 1,485 5.0 -12.6°
Drops below altitude 10° 09:34:00 10° 204° (SSW) 2,703 6.7 -11.2°
Sets 09:36:42 0° 195° (SSW) 3,642 7.4 -10.6°
